カタログに戻る

THOR AGENA B DEB

運用中PO
NORAD 510·DEBRIS·🇺🇸 United States

打ち上げ Sep 29, 1962 から Vandenberg Space Force Base

Loading…

次のパス (今後24時間)

TLE

最新Source: Space-Track

元期: Sep 14, 2026, 21:46 UTC

1 00510U 62049C   26257.90717322  .00000045  00000-0  41105-4 0  9994
2 00510  80.5116 237.1579 0014798 216.5009 171.6873 13.70078298194951

AllMySatでTHOR AGENA B DEBをリアルタイム追跡

Download on the App Store